Location: Zagreb
(45.8000°N, 16.0000°E)
Time: 15:06:04
(UTC+02:00)

Tiros 1 despin weight - Pass Details

Date: 14 August 2022
Orbit: 590 x 639 km, 48.2° (Epoch: 23 September)

Event Time Altitude Azimuth Distance (km) Brightness Sun altitude
Rises 12:11:07 0° 229° (SW) 2,863 ? 56.8°
Reaches altitude 10° 12:13:30 10° 223° (SW) 1,952 ? 57.0°
Maximum altitude 12:17:47 47° 150° (SSE) 804 ? 57.2°
Drops below altitude 10° 12:22:02 10° 77° (ENE) 1,934 ? 57.5°
Sets 12:24:22 0° 71° (ENE) 2,832 ? 57.6°
